Wind_Speed
12 17 31 24 27 27 26 15 7 9 13 18 18 16 11 16 21 20 20 20 18 16 4 9 17 20 23 26 29 34 34 36 41 44 44 39 43 48 45 44 44 44 42 42
5 14 14 26 23 24 27 24 13 10 10 19 18 11 9 18 22 21 22 20 19 18 16 8 11 19 25 23 25 28 28 31 30 36 38 38 41 44 44 42 43 44 43 41
3 9 7 22 20 12 18 17 16 15 16 19 20 15 16 21 24 22 22 19 18 17 15 19 17 3 16 26 28 27 30 28 29 32 35 35 38 38 41 42 43 44 44 42
2 4 9 7 13 6 8 19 20 19 19 16 17 12 13 25 25 21 19 18 16 14 20 23 21 16 10 17 24 25 28 28 29 32 34 33 36 40 39 41 44 45 44 43
4 6 4 16 18 12 6 16 22 18 20 21 21 9 10 26 21 13 15 15 19 22 21 22 26 26 5 18 18 27 28 27 29 32 33 32 32 40 40 37 38 41 44 42
4 6 10 15 22 22 3 11 24 21 21 21 21 17 13 25 20 19 23 24 24 26 25 30 32 26 19 15 6 27 26 30 33 34 36 39 42 33 35 40 39 39 40 41
9 6 5 12 23 11 13 8 19 18 17 19 17 11 13 18 18 22 23 28 29 30 30 29 29 25 23 19 20 18 14 23 30 36 37 37 37 32 35 34 35 37 37 36
5 5 7 16 9 11 3 6 10 13 14 13 12 13 13 19 19 25 30 36 35 32 30 32 30 33 30 26 28 25 16 21 30 31 32 32 33 34 34 34 31 30 31 30
6 4 3 7 6 6 3 6 11 12 13 13 14 14 16 18 21 26 34 33 33 31 32 35 38 38 31 33 32 30 9 24 26 25 28 31 32 30 28 29 25 26 28 28
4 6 4 5 5 6 6 8 10 11 13 14 14 16 17 15 17 25 30 33 37 39 38 37 40 38 37 41 41 32 33 30 10 24 23 26 26 30 26 25 23 21 21 23
3 5 4 5 5 5 6 8 9 16 14 14 13 14 15 15 21 23 26 31 34 32 33 35 38 40 41 42 40 33 38 32 29 5 12 17 25 25 26 26 29 29 28 26
2 4 3 5 5 4 5 6 8 8 13 18 18 14 21 19 24 27 28 32 34 34 33 35 37 40 43 41 37 35 32 31 34 27 12 6 6 14 11 12 19 21 22 25
2 3 3 5 3 5 2 4 8 12 14 12 19 18 20 21 24 25 28 30 31 31 33 34 35 39 43 42 39 39 36 35 31 30 27 23 11 5 8 6 6 6 12 13
2 3 5 5 4 9 6 8 9 10 13 15 16 17 18 20 24 26 28 26 28 30 30 31 34 39 41 38 38 38 35 36 31 29 31 29 29 21 7 8 8 7 4 3
5 3 2 4 8 10 10 10 9 7 11 16 19 16 19 20 21 22 22 24 26 29 31 33 36 40 40 37 36 36 38 35 31 32 32 28 28 26 25 24 27 27 21 16
2 3 3 2 4 6 7 9 5 6 12 13 14 17 16 18 19 20 24 24 28 28 29 29 33 35 37 36 34 32 32 37 34 32 31 32 33 29 29 28 26 26 27 27
2 3 3 2 2 4 4 5 5 5 8 13 14 16 17 16 16 21 24 24 21 24 25 26 27 31 34 35 32 30 29 30 31 30 31 29 27 26 24 23 23 22 22 27
2 1 3 3 2 4 6 8 6 3 5 7 10 16 18 17 15 17 20 18 22 25 32 29 26 27 30 33 29 28 28 27 27 28 27 28 27 26 26 25 24 23 24 28
2 1 3 6 6 6 5 8 8 2 3 5 10 12 14 17 17 17 15 17 22 24 28 27 25 25 28 29 28 27 26 25 24 25 26 26 26 26 26 25 23 24 24 26
3 2 1 4 5 5 8 8 7 2 3 4 7 10 14 15 18 21 15 16 18 21 22 21 24 24 28 26 25 24 28 26 23 22 24 23 25 24 24 25 24 24 24 25
5 5 4 4 6 5 8 10 7 3 2 2 5 7 10 13 15 18 20 15 20 21 20 17 21 24 26 25 24 21 26 26 25 21 22 22 22 22 22 23 23 23 24 24
9 7 7 5 4 5 7 7 5 1 2 3 4 3 6 10 13 12 13 15 20 21 20 18 19 20 21 22 22 23 23 25 24 21 20 20 20 21 21 20 20 20 19 19
10 9 9 7 6 5 5 5 3 3 4 4 4 3 4 6 8 8 11 15 18 17 17 20 19 20 20 21 20 20 20 21 22 20 19 18 18 18 18 18 18 17 17 16
12 12 12 8 7 7 8 7 5 5 5 5 4 3 4 6 8 6 8 11 14 14 15 16 17 19 19 20 20 19 17 19 19 17 16 16 16 16 16 16 16 16 16 16
14 14 12 11 11 13 12 9 8 7 7 7 6 5 5 5 5 6 8 12 14 12 14 14 15 17 17 18 18 19 19 18 17 17 16 16 16 16 16 15 15 15 15 15
16 19 19 19 18 16 14 11 13 11 11 11 10 8 7 5 4 4 6 8 11 11 13 13 14 16 16 17 16 17 17 16 16 15 15 14 14 14 14 14 15 15 15 15
17 18 18 18 19 21 20 18 16 16 14 14 13 9 9 7 6 5 5 7 8 8 10 12 12 13 14 15 15 16 16 14 14 15 14 14 13 13 13 13 13 13 13 14
Wind_Direction
110 59 61 56 45 42 44 27 38 347 336 355 336 324 316 338 332 344 353 1 352 353 245 177 190 193 191 185 177 177 182 192 190 194 199 199 203 205 204 204 205 204 203 206
12 360 37 49 34 39 34 25 17 360 357 344 327 330 5 352 345 353 352 347 347 349 351 4 186 186 188 187 189 186 188 200 191 186 189 192 199 201 200 202 203 205 206 206
341 343 338 33 5 31 34 24 11 13 330 335 342 354 18 360 353 353 347 339 344 348 350 349 353 253 195 185 188 188 195 196 190 183 189 194 197 197 197 200 203 205 207 207
314 350 52 323 2 354 42 15 6 358 348 344 344 330 9 5 352 341 337 342 342 343 355 358 351 348 233 204 190 192 195 195 186 184 188 188 193 197 196 199 203 205 207 209
77 49 161 15 351 336 341 19 359 356 353 357 353 11 17 358 341 334 341 345 347 358 5 3 356 353 305 196 198 202 204 195 194 188 184 184 194 196 201 199 199 203 209 209
11 74 31 343 340 321 246 10 345 352 357 1 3 28 356 331 340 349 355 360 4 8 16 19 1 7 27 29 317 220 197 195 192 188 188 192 199 193 195 200 201 204 208 212
35 77 75 337 346 343 56 322 329 345 350 2 21 12 323 333 348 355 10 8 8 19 18 13 7 13 19 12 0 327 289 200 190 188 190 190 190 190 194 194 201 204 209 213
16 60 37 346 353 48 259 300 342 347 352 352 354 354 357 356 360 5 12 9 13 18 14 14 7 19 15 5 348 328 260 219 184 184 180 180 181 187 191 193 198 201 207 211
50 90 272 314 8 347 304 318 353 360 4 3 1 8 8 1 360 4 14 9 11 17 15 15 14 15 6 358 1 359 233 186 177 180 173 179 178 176 175 185 185 189 200 205
73 350 326 330 349 359 346 359 351 4 8 10 11 11 11 9 3 11 13 14 9 11 12 11 12 12 9 8 17 14 32 28 175 179 184 186 178 178 177 182 183 187 193 201
53 8 340 357 3 343 357 353 360 5 13 13 6 9 13 13 14 14 15 17 17 13 11 9 9 11 12 13 17 18 30 20 23 102 176 183 179 181 185 203 199 193 205 206
213 267 198 268 315 357 16 6 356 357 1 9 16 11 9 18 17 15 13 18 14 10 15 13 12 13 13 15 19 28 29 23 20 25 50 98 110 135 175 215 211 210 216 221
258 279 232 286 308 358 17 3 30 20 10 3 8 16 17 13 17 20 21 20 16 13 11 13 14 18 13 14 19 26 28 25 24 24 30 34 79 115 119 126 175 213 243 232
284 335 0 7 314 337 2 27 46 57 36 29 16 22 23 21 19 23 22 15 14 16 18 16 19 18 13 15 21 25 29 29 28 27 32 35 41 31 70 115 108 106 123 203
3 12 277 303 9 358 8 8 14 23 39 27 27 26 32 23 18 15 18 20 20 22 20 20 20 15 14 17 23 25 25 27 27 29 33 40 42 41 43 47 53 51 51 45
184 72 12 18 352 357 360 2 9 356 19 38 35 36 33 33 27 23 23 22 25 19 17 20 21 14 18 21 22 25 28 27 32 32 30 34 36 34 37 39 41 44 37 25
103 320 318 336 323 331 342 341 342 359 13 22 25 36 41 32 25 24 22 24 22 25 25 23 19 18 22 29 26 26 27 29 31 35 34 34 36 36 38 41 41 41 37 40
216 285 297 289 321 336 344 353 349 343 7 10 22 31 34 36 31 23 23 19 16 20 25 28 22 20 22 29 30 29 30 31 30 31 33 33 36 36 35 38 38 38 35 41
321 343 21 19 355 345 350 352 347 322 344 2 17 30 29 27 28 31 37 35 23 16 9 19 19 21 23 26 30 28 28 30 30 31 31 29 30 32 33 32 32 35 37 41
270 239 312 354 9 10 357 356 351 296 313 342 2 15 19 19 17 20 30 46 34 23 20 16 16 16 18 22 26 25 30 30 29 30 30 30 31 27 28 30 31 31 32 36
235 244 270 304 327 347 357 351 346 313 301 350 4 8 7 4 10 14 18 21 16 18 29 25 20 16 13 14 23 27 29 31 31 27 30 28 28 31 33 31 30 30 31 32
228 242 256 273 292 318 340 347 346 305 248 307 348 358 357 358 4 7 17 14 3 7 21 24 20 17 16 21 24 27 27 28 30 27 23 23 24 26 26 29 31 28 26 25
242 245 249 258 266 281 300 319 313 274 251 284 299 297 333 350 2 9 5 5 3 5 10 9 13 14 17 23 26 27 26 19 18 20 23 23 23 23 27 27 25 24 25 28
250 245 245 254 257 263 262 281 257 253 255 276 259 275 309 320 338 352 2 3 7 9 7 6 6 8 12 15 19 22 23 15 16 17 20 21 24 25 27 25 25 24 26 28
249 245 244 238 244 256 263 263 240 237 244 239 247 260 287 316 325 339 352 358 2 5 7 5 6 10 13 13 16 14 13 16 20 24 22 20 21 23 26 30 35 36 38 40
240 236 242 242 247 260 264 244 232 236 229 232 241 250 265 280 285 312 337 346 351 354 3 2 4 7 11 12 11 12 15 18 20 24 25 28 28 28 32 37 41 44 46 47
251 251 255 259 258 261 259 246 233 235 234 235 242 247 245 249 255 277 310 332 340 347 352 355 359 4 7 8 8 8 12 18 20 22 25 27 29 31 35 39 41 43 48 49
Height
798 794 781 792 795 792 798 800 799 801 792 794 789 780 771 772 759 740 725 718 714 705 694 694 699 704 708 712 718 722 727 732 731 742 750 760 767 771 776 783 789 796 803 808
789 787 781 796 806 806 809 813 806 798 794 796 789 780 776 774 759 742 732 728 722 712 704 697 696 700 706 710 714 720 723 729 733 736 744 749 759 765 770 778 784 791 796 801
796 794 776 789 822 823 832 828 825 815 815 800 787 781 783 775 763 751 743 736 728 722 716 708 702 701 703 706 712 714 721 725 727 730 736 746 753 760 764 772 778 785 790 795
822 803 821 839 835 829 830 836 827 822 814 804 795 785 782 773 766 761 754 744 736 729 719 713 708 703 702 704 709 712 715 720 722 727 734 741 749 754 759 766 771 778 784 790
840 827 835 829 836 835 832 838 833 825 817 806 796 784 782 782 778 771 760 752 742 733 727 719 711 703 700 702 705 708 711 713 717 721 727 733 743 747 752 760 767 772 778 785
840 844 853 860 846 828 827 832 835 830 823 813 801 787 796 792 779 771 764 757 746 738 731 723 718 710 705 703 705 703 704 707 712 716 721 728 729 739 748 754 760 766 772 780
835 847 867 866 850 829 840 868 846 839 829 822 814 819 814 800 786 781 772 761 753 742 736 733 729 719 713 710 706 701 698 702 706 710 716 720 725 736 744 751 756 762 768 775
851 864 878 867 858 855 869 860 853 847 841 831 827 823 816 805 792 778 767 760 753 749 747 736 733 719 718 715 710 701 697 699 700 705 710 715 724 732 739 746 753 758 765 772
875 886 883 878 873 869 867 862 856 850 843 837 829 822 817 809 799 789 776 773 766 758 753 744 737 730 727 722 711 699 691 692 696 703 706 714 716 726 737 743 749 754 762 766
888 886 887 881 876 872 867 863 857 852 846 840 837 831 825 819 811 800 792 784 776 765 757 754 748 742 734 723 712 707 699 696 697 699 706 713 717 722 729 738 744 751 757 760
889 885 882 880 878 876 872 867 860 855 850 846 842 836 832 826 817 813 806 796 788 784 774 766 759 752 744 736 726 719 709 710 706 707 711 713 715 721 726 731 737 742 748 754
907 887 889 884 878 876 874 871 865 861 856 851 846 840 835 831 826 818 811 804 799 794 786 778 771 762 754 749 742 734 728 724 721 717 718 720 721 719 723 731 737 740 744 750
886 882 881 878 877 875 874 872 870 864 861 856 850 846 842 837 832 828 821 814 811 804 797 791 784 776 768 760 754 746 740 737 735 732 727 727 726 728 731 737 741 740 745 753
882 881 880 878 876 873 871 871 871 868 864 861 857 852 848 842 836 832 828 826 821 814 808 802 793 786 781 776 767 760 755 751 750 748 742 739 737 741 741 742 742 746 750 753
881 880 879 877 875 873 872 869 867 867 866 861 859 856 853 848 844 841 837 833 827 822 814 808 801 796 791 786 778 772 767 763 762 757 755 753 752 751 749 747 742 742 746 749
883 882 881 880 878 875 873 870 869 868 866 867 866 861 857 854 851 847 842 837 832 828 823 818 813 809 802 794 789 785 781 778 771 769 766 761 759 758 754 754 754 755 757 760
882 882 881 880 879 876 875 872 869 868 868 866 867 864 862 858 854 850 846 844 842 837 832 827 823 818 811 805 801 797 793 789 786 782 779 777 773 771 770 768 766 767 768 768
880 880 879 878 877 876 874 872 870 869 868 869 868 865 863 861 860 856 852 849 843 838 834 832 829 825 821 816 812 807 803 800 797 793 791 788 785 783 781 779 777 775 774 772
879 879 878 878 876 875 874 872 870 869 869 868 867 865 864 862 861 860 858 855 849 843 840 837 835 832 829 824 818 815 812 809 806 802 799 797 793 790 788 787 785 784 782 779
878 878 878 877 876 875 874 872 870 869 868 867 866 865 863 863 861 859 856 855 853 852 847 842 839 836 833 830 825 821 818 815 812 808 806 803 800 797 795 794 792 790 788 786
876 877 877 877 875 874 873 871 870 869 868 868 867 865 864 863 861 860 856 855 856 853 850 847 844 840 837 833 830 827 823 819 815 812 810 809 806 804 801 800 798 796 794 792
873 874 874 874 874 873 872 870 869 868 868 868 868 867 866 865 863 861 860 860 857 854 851 849 848 845 842 837 833 829 826 824 821 817 815 814 811 809 807 805 802 801 800 797
870 871 871 871 871 870 869 869 868 868 868 868 867 867 867 866 865 863 862 860 857 854 851 849 848 846 843 840 837 833 830 828 825 822 820 818 816 814 811 808 807 805 804 802
868 868 868 869 869 868 867 867 866 866 867 867 867 867 866 865 865 864 863 861 859 857 854 851 848 845 842 839 837 836 834 832 829 826 824 822 820 818 815 812 810 808 806 804
863 864 865 865 865 864 863 864 864 864 865 865 865 865 865 864 864 863 861 860 858 857 855 853 850 847 844 842 840 838 836 834 832 830 827 824 821 819 817 815 813 811 809 807
858 858 858 859 859 859 859 860 860 861 861 862 863 863 863 863 862 862 861 860 859 856 854 852 850 848 845 843 842 840 838 836 834 832 830 827 825 822 820 818 816 814 812 811
853 854 854 855 854 854 854 855 855 855 856 857 858 860 860 860 860 861 860 859 858 857 855 853 851 849 847 845 842 840 838 836 833 831 830 828 826 825 822 821 819 818 816 815